{"data":{"norad_id":60504,"epoch":"2026-05-25T04:35:30.314112Z","epoch_age_seconds":65311,"freshness":"FRESH","line1":"1 60504U 24149AN  26145.19132308  .00006947  00000+0  23125-3 0  9991","line2":"2 60504  97.3784 225.5404 0003990  41.2307 318.9236 15.31450024 98537","mean_motion":15.31450024,"eccentricity":0.000399,"inclination_deg":97.3784,"raan_deg":225.5404,"arg_perigee_deg":41.2307,"mean_anomaly_deg":318.9236,"bstar":0.00023125,"rev_number":9853,"period_min":94.028533574923,"perigee_km":468.75226274965,"apogee_km":474.21826131475,"semimajor_km":6849.6222620322,"source":"CELESTRAK","updated_at":"2026-05-25T13:38:02.118850Z"}}